Fecha, hora, temperatura, viento dirección y velocidad, humedad y presión.

  • 11-04-2019 21:00:00 | 7.60°C | Norte |13.00 km/h | 75.00% | 966.70 hPa
  • 11-04-2019 20:00:00 | 9.00°C | Norte |16.00 km/h | 74.00% | 966.20 hPa
  • 11-04-2019 19:00:00 | 10.30°C | Noroeste |20.00 km/h | 72.00% | 965.90 hPa
  • 11-04-2019 18:00:00 | 10.30°C | Norte |21.00 km/h | 70.00% | 965.70 hPa
  • 11-04-2019 17:00:00 | 11.10°C | Noroeste |22.00 km/h | 68.00% | 965.50 hPa
  • 11-04-2019 16:00:00 | 11.80°C | Noroeste |21.00 km/h | 66.00% | 965.50 hPa
  • 11-04-2019 15:00:00 | 9.50°C | Noroeste |20.00 km/h | 79.00% | 965.80 hPa
  • 11-04-2019 14:00:00 | 10.20°C | Noroeste |24.00 km/h | 72.00% | 965.70 hPa
  • 11-04-2019 13:00:00 | 8.80°C | Noroeste |24.00 km/h | 81.00% | 966.00 hPa
  • 11-04-2019 12:00:00 | 8.80°C | Noroeste |24.00 km/h | 78.00% | 966.00 hPa
  • 11-04-2019 11:00:00 | 8.30°C | Noroeste |22.00 km/h | 82.00% | 965.70 hPa
  • 11-04-2019 10:00:00 | 6.80°C | Norte |10.00 km/h | 91.00% | 965.50 hPa
  • 11-04-2019 09:00:00 | 6.50°C | Norte |14.00 km/h | 89.00% | 965.30 hPa
  • 11-04-2019 08:00:00 | 6.30°C | Noroeste |11.00 km/h | 86.00% | 964.90 hPa
  • 11-04-2019 07:00:00 | 5.20°C | Noroeste |6.00 km/h | 89.00% | 964.80 hPa
  • 11-04-2019 06:00:00 | 6.10°C | Noroeste |13.00 km/h | 87.00% | 965.00 hPa
  • 11-04-2019 05:00:00 | 6.40°C | Noroeste |13.00 km/h | 86.00% | 964.90 hPa
  • 11-04-2019 04:00:00 | 6.80°C | Noroeste |18.00 km/h | 88.00% | 964.70 hPa
  • 11-04-2019 03:00:00 | 6.40°C | Noroeste |13.00 km/h | 87.00% | 964.80 hPa
  • 11-04-2019 02:00:00 | 6.70°C | Noroeste |12.00 km/h | 86.00% | 965.00 hPa
  • 11-04-2019 01:00:00 | 7.20°C | Noroeste |16.00 km/h | 85.00% | 965.00 hPa
  • 11-04-2019 00:00:00 | 7.10°C | Noroeste |11.00 km/h | 87.00% | 964.70 hPa
  • 10-04-2019 23:00:00 | 7.20°C | Norte |8.00 km/h | 76.00% | 964.50 hPa
  • 10-04-2019 22:00:00 | 7.30°C | Norte |15.00 km/h | 74.00% | 964.10 hPa
    • diseño web asturias Información sobre el estado de las mareas, altura de la marejada, temperatura del agua y otros datos de Gijón en Asturias.

      Surf Gijón